SL-19 DEB, 23487

Orbit data source: Space-Track

SL-19 DEB, 23487 is space debris in LEO originally from a launch on Mon, 26 Dec 1994 UTC launched from the Tyuratam Missile And Space Complex (TTMTR). Debris objects in space refer to the collection of defunct objects orbiting the Earth. Examples of debris include non-operational satellites, rocket bodies, and fragments generated from explosions, collisions, or faulty payload assembly.

Loading next visibility...
Identifier
23487, 1994-085K
Orbit
LEO
Country
Flag of CISCIS
Related business
Manufacturer
Unknown
Mission
Spacecraft
Bus & Motor
Unknown
Mass
Unknown
Launch date (UTC)
1994-12-26 (31 years ago)
Launch vehicle
Unknown
Launch site
Tyuratam Missile And Space Complex (TTMTR)
Object type
Payload
Rocket body
Debris
Shape & HBR
Unknown shape, 0.2 m
Radar Cross Section
Small (<0.1 m²)

Expand to show TLE details & history
Last TLE update: 18 hours ago

TLE from 18 hours ago
0 SL-19 DEB
1 23487U 94085K   25309.65397638 -.00000050  00000-0 -20699-3 0  9992
2 23487  64.9378 281.2541 0177794 227.3472 318.8791 11.30409323273687
Epoch: 2025-11-05T15:41Z
TLE epoch observation values (Epoch: 2025-11-05T15:41:43.559Z)
Latitude
-4.51217°
Longitude
-177.19599°
Altitude
1,899.531 km
Speed
6.986 km/s
True Right ascension
06h 53m 26s
True Declination
-4° 29' 20"
Sunlit
Object was in daylight at epoch
Visualization orbit readout
Latitude
Unknown
Longitude
Unknown
Altitude
Unknown
Speed
Unknown
Apparent Right ascension
Unknown
Apparent Declination
Unknown
Sunlit
N/A
Visualization observer readout
Local Sidereal Time
05:55:42
Azimuth
Unknown
Elevation
Unknown
Doppler factor
Unknown
Orbital elements
Apogee altitude
2,156.187 km
Perigee altitude
1,858.018 km
Semi-major axis
8,385.24 km
Eccentricity
0.01778
Inclination
64.9378°
RAAN
281.2541°
Arg. of periapsis
227.3472°
True anomaly
317.51655°
Mean anomaly
318.8791°
Eccentric anomaly
318.20012°
Mean motion
2.82664 °/min
Orbital period
127.36 mins
BSTAR
-0.00020699
Loading maneuver chart data...
Computing Atmospheric mass density...
Loading historical data...
Loading historical data...
Loading historical data...
Loading historical data...
Loading historical data...
Loading historical data...
Loading historical data...

Documentation

Showing up to 5 results
|